Location: *
(46.0770°N, 1.6444°E)
Time: 13:49:10
(UTC+00:00)

ERS-1 Rocket - Pass Details

Date: 16 September 2019
Orbit: 754 x 757 km, 98.5° (Epoch: 17 October)

Event Time Altitude Azimuth Distance (km) Brightness Sun altitude
Exits shadow 21:40:24 37° 325° (NW) 1,163 4.3 -33.8°
Drops below altitude 10° 21:43:32 10° 340° (NNW) 2,292 6.2 -34.2°
Sets 21:45:52 0° 344° (NNW) 3,222 7.1 -34.4°
